Location: Little Arabia
(41.4620°N, 81.7687°W)
Time: 20:11:11
(UTC+00:00)

CZ-4B R/B - Pass Details

Date: 29 October 2020
Orbit: 388 x 461 km, 97.6° (Epoch: 03 December)

Event Time Altitude Azimuth Distance (km) Brightness Sun altitude
Rises 23:21:45 0° 6° (N) 2,376 4.9 -11.2°
Reaches altitude 10° 23:23:50 10° 0° (N) 1,493 4.0 -11.5°
Maximum altitude 23:26:53 46° 286° (WNW) 554 2.3 -12.1°
Drops below altitude 10° 23:29:52 10° 211° (SSW) 1,447 4.5 -12.7°
Sets 23:31:51 0° 206° (SSW) 2,290 5.5 -13.0°
